Wind_Speed
27 26 27 29 34 38 37 33 28 21 16 15 14 15 16 16 19 20 20 21 21 22 24 26 28 29 29 27 26 25 24 22 21 22 22 21 20 20 19 17 16 16 14 15 18 19 19 20 20 21 21 21 21 20 20 19 19 18 18 18 18 18 18 18 17 16 15 14 14 13 13 13 13 14 15 14 14 15 15 16 16 15 16 18 19 20
30 32 31 26 27 33 34 28 21 18 18 17 15 13 13 15 17 18 21 23 23 25 25 24 26 29 29 27 26 27 29 27 23 22 22 22 22 21 20 18 17 17 16 18 20 19 19 20 21 22 22 22 21 20 20 19 18 18 18 19 19 19 20 19 18 18 17 16 15 15 15 16 16 17 16 15 15 16 17 17 17 17 18 19 20 21
35 36 32 22 20 28 31 25 19 17 18 20 19 17 14 13 14 18 22 23 22 23 24 25 27 28 27 27 26 26 28 30 28 27 26 24 24 23 22 20 19 18 19 20 21 20 20 20 20 22 22 22 21 21 21 20 20 20 20 20 20 21 21 20 20 20 18 17 18 18 18 19 19 18 17 16 17 17 17 18 18 19 20 21 21 21
38 34 30 22 17 24 28 22 18 19 20 22 24 23 19 14 13 18 21 22 22 21 22 23 25 27 26 25 28 27 26 29 29 29 30 30 29 27 25 23 22 21 21 21 22 22 21 21 21 21 21 22 22 23 23 22 22 22 21 21 21 21 21 21 21 21 20 20 21 21 21 21 21 19 18 17 17 17 19 20 21 21 21 21 21 21
37 27 24 23 19 23 26 23 21 21 21 23 25 25 23 16 14 16 18 20 21 20 20 20 22 27 29 27 28 26 24 27 29 30 31 32 31 29 27 26 24 23 23 23 22 22 23 23 22 21 21 22 23 23 23 23 23 23 22 22 22 22 23 23 23 22 23 23 23 23 23 23 21 19 18 17 17 19 21 22 22 22 22 22 21 21
39 29 23 24 23 24 24 24 24 22 22 23 24 26 24 17 12 11 15 18 18 19 19 17 14 19 25 25 25 25 26 27 29 30 31 30 29 28 27 25 24 24 24 24 23 23 23 24 24 23 23 24 24 23 23 23 24 24 24 24 25 25 25 24 25 25 25 26 25 25 24 23 22 20 19 19 19 21 22 23 23 23 22 22 22 22
40 36 30 25 25 27 26 25 25 23 22 23 23 24 24 21 15 10 12 15 15 14 15 16 13 13 19 17 13 17 23 26 28 29 30 29 28 28 27 25 24 25 25 25 24 24 24 24 25 25 25 25 25 24 24 25 25 26 26 26 26 26 26 26 26 26 26 27 26 25 24 23 22 21 20 20 22 23 24 24 24 24 23 22 23 23
39 41 37 30 27 28 30 29 26 24 24 23 21 23 24 22 19 14 10 11 13 12 11 14 16 15 21 21 15 14 17 19 23 27 28 28 27 27 26 25 25 25 25 26 26 25 25 26 25 25 26 26 26 26 27 27 27 27 27 27 27 27 27 27 27 27 27 27 26 26 25 25 23 22 21 23 24 24 24 25 25 24 24 24 24 23
35 38 38 34 31 32 33 29 25 25 24 22 19 23 23 18 17 18 14 13 14 13 12 15 15 11 17 25 21 18 19 17 17 20 22 23 24 25 26 25 25 24 25 26 27 27 27 27 27 26 27 27 28 29 29 29 29 29 28 28 28 28 28 28 28 28 28 27 27 27 27 26 24 23 24 25 25 25 25 26 25 25 25 25 24 21
30 33 34 34 35 34 31 27 26 26 24 21 19 22 23 18 16 15 15 16 13 12 14 17 16 10 12 24 24 21 23 22 17 16 17 17 17 21 23 24 24 25 26 27 27 27 27 27 27 28 28 29 29 30 30 30 30 30 30 30 29 28 28 28 28 28 28 28 27 27 27 26 25 25 25 26 26 26 26 26 26 26 26 24 22 20
30 30 33 35 36 32 28 27 27 25 24 22 21 21 20 18 17 14 14 15 10 9 15 18 18 13 8 17 22 21 22 23 21 20 19 18 16 17 18 20 23 24 25 26 26 27 27 27 28 28 29 29 30 31 31 31 31 31 31 31 30 29 29 28 28 28 27 27 27 26 26 26 26 26 27 27 26 27 27 27 27 27 25 22 20 19
32 29 32 36 37 32 29 30 29 26 26 25 24 23 18 12 12 11 10 10 6 5 9 12 16 17 13 12 15 14 13 14 16 17 18 18 19 19 19 20 21 22 22 23 24 25 26 27 28 29 29 29 30 31 31 32 32 32 33 33 32 31 30 29 29 28 28 27 27 26 26 26 26 27 27 28 28 28 28 28 28 27 23 20 19 19
33 31 31 32 35 35 32 33 33 30 30 30 27 25 17 7 5 7 5 5 7 7 7 8 10 16 21 21 20 19 16 14 14 16 17 18 18 19 20 20 20 21 21 22 22 23 24 25 26 28 28 29 30 31 31 32 33 33 34 34 34 33 32 31 30 30 29 29 28 28 27 27 27 28 28 28 29 29 29 29 28 24 21 20 20 19
27 26 31 31 33 36 34 36 37 35 34 34 32 27 18 6 3 3 3 1 6 10 11 12 10 11 18 20 21 21 19 18 19 20 20 20 19 20 20 20 19 18 19 21 22 23 23 24 26 27 27 28 30 31 32 33 33 34 35 35 35 35 34 34 33 32 32 31 30 30 30 30 30 30 30 30 30 30 30 29 26 22 21 20 20 19
26 20 29 33 31 34 36 36 36 35 35 35 33 29 24 17 9 5 4 4 8 10 11 12 8 7 9 8 10 12 10 12 16 18 19 19 19 19 19 19 18 17 17 19 20 21 22 23 25 26 27 28 29 30 31 33 34 34 35 35 35 36 36 36 35 34 34 33 32 31 31 32 32 32 32 32 31 31 29 27 24 22 21 21 21 20
32 22 28 35 33 33 36 37 36 34 32 32 32 30 29 28 20 9 7 11 11 6 6 11 12 12 11 6 5 8 10 10 11 12 12 12 12 13 14 15 16 17 18 19 20 23 24 25 26 26 27 29 29 30 31 32 33 34 35 35 36 36 36 36 36 36 35 34 34 33 33 34 34 34 34 33 31 30 28 25 23 23 23 22 21 19
30 20 22 32 32 31 33 35 36 33 29 29 32 33 30 27 22 13 8 9 7 3 6 11 16 20 19 15 14 17 18 16 15 15 14 14 15 14 13 14 15 16 17 18 20 22 23 25 26 26 27 28 29 30 31 31 32 33 34 35 35 35 36 36 36 35 35 35 35 35 35 36 37 36 35 33 31 29 26 25 24 24 24 22 20 18
32 21 19 29 33 32 32 32 34 34 30 29 32 34 29 22 22 19 8 2 3 3 6 12 17 19 15 11 10 11 13 13 14 15 16 17 16 12 11 13 15 17 19 20 20 20 21 22 24 26 26 26 27 29 30 31 32 33 33 34 34 34 34 33 33 32 32 32 33 34 36 37 37 36 34 32 30 27 26 25 25 25 23 21 19 19
34 24 20 29 34 34 33 32 33 34 33 30 28 31 29 19 19 22 12 3 3 3 4 9 15 20 20 17 11 8 8 9 10 11 12 13 13 12 12 12 13 14 16 18 19 19 19 20 21 23 25 25 26 27 29 29 31 32 33 34 34 33 33 31 31 30 29 30 31 33 35 35 34 33 32 29 28 26 26 26 25 24 22 21 21 21
34 24 17 25 33 34 33 34 35 36 34 29 22 26 32 24 18 22 20 10 5 3 4 6 7 15 26 28 23 19 17 15 15 15 15 15 17 17 16 14 13 14 15 16 17 17 17 18 19 21 22 23 25 25 26 27 28 29 31 33 34 34 33 31 30 29 28 28 30 31 32 32 31 30 28 27 27 26 26 25 24 23 22 22 23 23
34 28 20 22 29 32 33 36 38 37 34 33 27 27 32 29 19 18 22 21 14 5 3 3 5 17 27 27 25 23 18 16 16 15 14 15 17 16 13 12 11 12 15 16 16 16 16 16 17 18 20 21 22 22 23 24 24 26 27 29 31 31 31 30 28 27 27 28 29 29 29 28 28 27 27 26 26 26 26 25 24 24 24 24 24 24
32 30 24 23 28 34 36 35 35 34 35 37 37 35 36 34 27 16 12 22 24 13 8 5 7 23 33 28 27 25 19 18 17 14 13 13 14 14 12 10 10 11 13 14 14 14 15 15 16 17 17 17 17 17 18 20 21 23 25 25 26 27 27 27 26 26 26 27 27 27 26 26 26 26 26 26 26 26 26 25 25 24 24 24 24 24
32 28 24 23 27 32 32 32 33 34 36 38 38 40 37 36 37 25 13 19 24 20 20 12 11 31 40 31 29 29 22 19 17 14 13 13 13 15 12 11 12 12 12 12 13 14 14 15 15 14 14 13 13 13 14 16 18 20 21 22 23 23 24 24 25 25 25 25 25 25 25 25 25 26 26 26 27 27 26 26 25 25 25 25 25 25
35 29 27 22 20 26 29 31 34 35 37 39 40 41 37 36 38 30 21 21 21 23 24 11 11 34 40 31 31 31 25 22 17 14 16 16 16 14 11 14 14 12 12 12 13 14 13 13 13 13 13 12 12 12 13 14 16 18 19 19 20 21 21 22 22 22 22 22 23 23 24 25 25 26 27 27 28 27 27 26 26 26 26 26 26 26
36 29 27 17 6 10 17 21 30 37 39 39 39 39 38 37 35 30 25 19 17 25 27 15 17 31 30 28 31 29 26 25 20 19 20 18 16 13 16 18 16 16 15 14 14 14 13 13 12 12 13 12 12 12 12 14 15 16 16 16 17 18 18 18 19 19 20 21 22 23 24 25 26 27 28 28 28 28 27 27 27 27 28 27 27 27
39 35 35 24 11 9 13 18 29 37 38 38 39 40 39 38 37 35 30 22 22 29 30 29 32 27 21 24 24 21 23 22 19 20 22 19 17 19 21 21 20 21 19 16 15 15 14 14 14 14 14 14 14 13 13 15 15 15 15 15 15 15 16 17 18 19 21 22 23 25 25 27 28 28 28 28 29 29 29 29 29 29 29 29 29 28
40 40 42 41 36 34 34 34 37 37 37 40 42 42 41 40 39 37 34 35 35 29 30 45 47 31 23 24 20 19 23 21 18 21 23 23 23 24 24 24 25 24 20 16 16 17 17 16 15 15 15 15 16 16 15 15 16 16 16 16 16 16 17 18 19 21 22 24 25 26 27 28 29 29 29 30 30 30 30 30 30 30 30 30 29 28
42 42 43 46 46 44 40 37 35 34 36 40 40 39 41 40 40 41 43 46 39 26 29 45 46 40 40 36 28 28 29 26 25 26 26 27 27 27 28 28 27 25 21 18 18 19 19 17 16 16 15 16 17 18 17 17 16 17 18 18 19 19 20 21 22 23 24 25 27 28 29 30 30 31 31 31 31 31 31 31 31 31 31 31 30 29
44 44 44 43 42 41 37 32 31 30 30 33 34 35 37 38 42 47 50 49 43 37 40 42 40 45 47 40 36 35 31 30 31 29 29 29 28 28 29 28 26 25 22 19 18 20 21 19 17 17 16 17 18 18 19 18 18 18 19 20 22 23 24 24 25 25 26 27 29 30 31 32 32 32 32 32 32 32 32 32 32 32 32 32 32 31
42 41 42 41 39 39 37 34 33 30 27 28 30 31 33 36 42 45 46 45 43 46 49 44 43 50 48 41 41 38 34 34 35 33 34 32 30 30 29 26 25 23 22 19 19 21 22 20 19 19 19 18 18 18 19 18 18 19 20 22 23 25 26 27 27 28 29 30 31 32 33 33 33 34 33 33 33 33 33 33 33 33 33 34 34 33
39 34 35 37 36 36 38 38 35 33 31 30 28 30 34 38 42 44 44 42 42 47 47 42 45 54 53 47 45 42 40 40 40 40 40 37 34 31 28 27 25 24 24 22 22 23 22 19 18 18 18 17 15 15 17 18 19 20 21 22 24 26 28 29 30 31 32 33 34 34 34 35 35 35 34 34 34 35 35 35 35 35 35 35 34 33
38 31 30 33 31 33 38 37 34 35 32 30 33 38 41 43 43 44 44 42 43 46 43 42 50 58 54 49 45 43 41 40 40 39 39 39 37 34 31 29 26 26 26 25 25 25 23 20 17 14 14 14 13 13 15 17 20 22 22 23 25 27 29 31 33 34 35 35 35 36 36 36 36 36 36 36 36 37 37 37 37 37 37 36 35 33
38 35 32 31 29 32 34 33 35 30 20 25 43 50 48 47 43 40 40 41 42 43 43 48 55 55 50 48 46 43 40 39 39 37 35 34 34 34 34 31 28 28 28 26 26 25 23 21 19 18 18 18 18 18 18 18 20 21 23 24 26 28 30 32 34 36 37 37 37 37 38 38 38 38 38 38 38 38 39 39 39 39 38 37 35 34
38 38 37 35 31 27 27 29 27 17 14 31 49 49 43 43 42 40 43 45 44 44 46 51 54 50 46 46 45 43 40 39 39 38 34 31 30 31 32 31 30 30 28 27 26 24 23 22 21 22 23 24 25 25 24 24 24 24 25 27 28 30 31 33 36 37 39 39 39 39 40 39 40 39 39 40 40 40 40 40 40 39 38 37 36 35
42 41 39 36 28 20 21 23 15 12 28 43 43 38 37 37 38 41 45 44 43 43 46 49 51 48 45 45 44 42 41 39 39 40 36 33 33 33 32 32 32 32 31 30 29 27 26 25 24 25 25 26 27 27 27 27 27 26 28 29 30 31 32 34 37 39 41 41 41 41 41 41 41 41 41 41 41 41 41 41 40 40 39 38 37 37
40 40 38 33 25 18 22 24 15 22 39 43 37 37 37 32 31 34 37 39 39 41 43 47 49 46 43 43 42 40 39 39 40 40 37 36 36 36 36 37 36 35 36 35 34 34 32 31 30 29 29 30 31 31 31 30 30 30 30 30 31 32 33 34 37 39 42 43 43 43 43 43 42 42 42 42 42 42 42 41 41 40 40 39 39 39
36 38 39 33 26 22 24 27 27 30 35 40 44 43 38 34 33 31 32 37 38 38 40 43 44 41 39 39 38 36 36 38 40 40 36 34 34 35 37 39 38 38 39 38 37 37 35 35 35 34 33 33 34 34 34 33 34 34 34 34 34 34 35 35 37 39 42 44 44 44 44 44 44 43 43 42 42 42 42 42 42 41 41 41 41 40
37 36 37 34 29 26 24 22 18 16 25 39 43 39 35 34 32 28 29 38 41 37 36 39 40 38 36 35 35 34 32 36 43 43 35 29 29 30 32 34 35 35 37 37 37 37 36 36 35 35 34 33 33 34 34 34 35 37 37 38 38 37 38 37 37 39 42 44 45 45 45 45 45 44 44 43 42 42 42 43 43 43 42 42 41 40
39 34 33 32 30 29 27 19 12 16 31 39 35 31 28 26 23 19 22 37 45 37 32 34 34 32 31 30 32 32 32 37 45 41 29 23 24 25 26 28 28 29 31 33 35 35 35 35 34 34 34 33 33 34 34 34 36 37 38 39 39 39 40 39 38 39 41 43 45 46 47 46 46 46 45 44 43 43 43 43 44 44 43 43 41 40
39 34 31 32 33 33 32 25 22 30 40 38 31 28 23 19 17 15 15 30 38 28 23 25 23 22 23 21 23 27 31 36 40 34 24 19 20 21 23 25 26 27 28 30 31 33 34 34 34 34 34 33 33 34 34 34 36 37 38 38 38 38 38 37 38 39 41 44 45 47 47 47 47 47 46 45 45 44 43 43 44 44 44 43 41 40
39 36 33 35 36 35 33 30 29 37 43 38 30 24 17 14 18 22 26 35 31 23 24 24 20 21 21 17 18 22 24 26 28 25 20 17 18 19 20 21 23 24 25 26 27 28 30 32 33 33 33 33 34 35 35 36 37 38 39 38 38 37 35 35 36 39 41 44 45 46 47 47 47 47 47 46 46 45 44 44 44 45 44 42 41 40
39 37 35 36 36 35 37 34 27 35 47 44 30 20 18 20 25 33 40 40 31 28 30 25 22 22 21 20 21 23 23 23 25 26 24 23 23 22 22 22 23 24 25 25 24 24 25 27 28 30 31 33 35 36 37 38 39 40 40 40 39 37 34 33 34 37 39 42 43 45 46 47 47 48 47 47 47 46 45 45 45 44 43 42 41 39
43 37 36 40 39 33 31 26 19 28 42 40 29 26 29 32 37 41 39 33 28 27 24 21 21 20 21 23 25 24 24 24 24 27 27 25 24 23 23 23 23 23 25 25 24 23 23 23 23 24 25 27 30 32 35 37 38 39 39 39 39 37 35 34 33 35 37 39 41 44 46 47 47 48 48 48 47 46 45 44 44 44 43 42 40 39
45 42 41 45 44 36 32 31 34 43 45 39 35 36 36 36 35 31 28 25 24 24 23 24 23 21 22 25 25 24 25 22 21 23 23 23 24 25 24 24 23 23 23 24 24 25 24 24 23 23 23 24 25 27 29 31 33 34 35 36 36 36 36 35 35 35 36 38 40 43 45 47 47 48 48 47 46 45 44 44 44 44 42 41 40 41
46 47 45 46 45 41 41 44 49 52 49 47 47 44 38 36 32 28 27 27 26 26 26 27 26 24 24 24 25 26 26 25 25 26 26 27 29 28 27 26 23 23 23 23 24 25 25 26 26 25 25 25 25 25 26 27 28 30 31 32 33 33 34 34 35 36 37 38 40 43 45 46 47 47 47 46 45 45 44 44 44 43 43 42 42 42
47 46 44 45 45 44 46 50 50 49 49 50 50 45 40 38 37 35 33 31 29 29 29 29 29 28 26 26 27 26 26 27 28 29 28 29 27 26 26 24 22 22 22 22 23 23 25 26 27 28 28 28 27 28 28 28 29 30 30 31 32 33 33 34 35 36 37 39 41 42 44 46 46 46 46 45 45 45 44 45 45 44 44 43 42 40
46 45 44 45 45 45 48 51 49 48 48 48 47 47 44 40 38 37 35 33 33 33 32 32 32 30 29 28 28 27 28 29 29 28 28 27 26 25 24 23 23 23 23 24 24 25 26 28 28 30 31 31 31 32 32 32 34 34 35 36 37 37 38 38 39 39 40 40 41 43 44 45 45 45 45 44 45 45 45 46 46 45 44 42 39 36
47 46 45 46 47 49 52 52 48 46 46 45 45 46 44 41 39 38 37 36 36 35 34 33 32 32 31 30 29 29 29 29 29 29 28 26 25 25 25 24 26 26 26 27 29 29 30 30 30 31 32 32 31 31 32 33 34 35 37 38 39 40 40 40 41 41 41 41 42 42 43 43 44 44 44 44 45 45 46 47 45 43 41 38 36 33
49 48 49 49 50 51 53 53 50 47 45 44 44 44 43 42 40 39 38 38 37 35 34 34 34 35 34 32 31 31 31 30 30 29 27 26 25 26 26 27 29 29 31 32 32 32 32 32 32 32 31 31 31 31 32 33 34 35 37 38 38 39 38 38 39 39 40 41 42 42 42 42 43 43 43 45 46 47 46 45 43 40 38 36 33 32
50 52 52 50 50 52 54 54 52 49 47 47 47 46 44 42 41 40 39 39 37 36 36 36 37 37 36 35 34 33 31 31 31 30 29 29 28 28 29 30 31 33 34 35 35 35 34 33 33 32 32 32 33 32 32 32 33 35 37 38 38 38 37 37 37 37 38 40 40 40 41 41 42 43 45 46 46 45 44 42 40 38 36 34 32 32
52 53 53 51 52 54 55 52 50 49 48 47 46 45 44 43 41 40 40 39 38 37 37 36 37 37 37 37 36 35 33 33 32 32 32 31 31 31 32 33 35 37 37 36 36 36 35 35 35 34 34 34 33 32 31 32 33 35 36 38 38 37 36 36 35 35 36 37 37 39 40 41 42 43 44 44 43 42 41 40 38 36 34 33 33 33
Wind_Direction
194 198 203 206 202 194 189 190 196 196 206 232 241 246 245 240 238 235 232 234 234 237 240 241 245 247 243 239 238 241 244 241 234 232 234 234 235 236 235 234 234 235 234 233 232 231 231 229 228 229 230 229 229 231 231 228 225 224 226 227 226 227 231 234 236 236 234 233 235 237 239 242 244 247 251 256 260 262 263 264 266 269 270 271 273 275
198 205 208 213 212 202 194 190 188 195 216 236 243 244 248 249 245 236 232 234 236 239 241 243 246 246 245 242 240 241 245 245 240 236 237 237 237 236 233 230 233 235 233 235 236 234 233 232 232 231 233 234 234 234 236 235 233 230 228 228 227 228 230 233 236 239 240 240 242 244 244 245 247 249 254 257 259 260 261 264 266 267 268 270 273 276
202 211 212 215 219 208 197 187 183 194 214 229 238 242 249 254 250 240 233 231 234 238 241 244 249 250 249 247 243 240 242 244 242 238 237 238 239 237 234 230 234 236 233 234 238 239 238 235 235 234 234 237 238 237 237 237 236 233 231 229 229 231 233 234 237 240 243 245 246 247 248 248 250 251 253 254 255 257 260 262 263 265 268 271 275 278
204 213 211 208 215 208 197 187 189 201 211 224 235 240 245 256 262 247 233 229 234 240 243 247 253 255 252 250 246 243 244 245 243 241 238 238 240 240 239 238 239 239 235 234 237 239 241 240 238 237 237 239 239 239 239 238 238 238 237 235 234 235 237 238 240 242 243 244 245 248 250 251 253 254 254 254 254 255 256 258 261 265 269 274 277 278
212 216 206 202 206 200 196 197 202 210 217 224 232 237 240 253 269 254 233 230 235 240 243 248 259 261 255 253 250 247 248 247 243 243 241 240 242 242 242 241 240 240 239 238 238 238 241 243 243 243 242 242 241 241 242 242 243 243 243 242 240 239 239 240 242 243 243 244 246 249 251 254 256 257 257 256 255 254 255 258 262 266 271 275 277 277
220 221 206 200 202 198 199 207 209 213 223 226 226 229 234 245 265 255 233 231 234 238 241 243 256 266 261 259 256 251 248 247 244 243 244 243 244 243 241 239 238 241 243 241 240 239 240 243 244 245 245 245 245 244 245 245 246 245 244 243 242 241 241 241 242 244 246 247 249 250 252 255 257 257 257 257 256 256 258 261 264 268 272 275 276 276
220 220 213 203 201 203 206 212 212 210 220 226 222 222 231 240 249 249 234 230 230 234 239 237 235 257 266 259 250 248 246 245 245 245 245 245 244 243 240 237 236 239 241 242 241 240 240 242 243 244 245 247 249 250 249 248 247 247 246 245 245 245 244 244 245 246 248 250 252 254 256 257 257 258 258 257 257 258 261 264 266 269 273 274 274 274
215 215 215 210 207 211 211 212 212 206 214 224 220 222 235 241 240 242 242 236 236 240 242 238 234 248 264 260 248 245 246 243 242 244 246 246 245 244 241 238 237 237 239 242 242 241 242 243 244 244 245 247 248 251 250 249 249 249 249 249 248 248 247 247 247 248 249 252 254 256 257 257 258 258 257 256 256 260 263 265 267 270 271 272 271 270
212 211 212 210 210 216 216 214 210 205 212 221 220 227 238 244 241 242 251 253 249 248 245 241 238 243 262 265 262 257 254 245 237 240 246 248 246 243 241 238 238 237 236 239 241 242 243 243 245 245 244 245 245 247 248 249 250 250 250 250 250 250 249 249 249 250 251 252 253 255 255 256 257 256 255 254 256 261 264 265 266 268 269 269 269 265
211 212 211 211 213 215 215 216 214 211 213 218 224 232 237 243 246 243 248 252 249 247 246 244 240 240 266 269 265 261 259 252 241 236 239 242 242 241 239 237 237 237 236 237 239 241 243 244 245 245 244 245 245 246 248 249 250 251 252 252 252 252 252 251 251 252 253 253 253 253 254 255 255 254 253 253 256 260 262 264 265 266 267 268 265 257
213 213 212 213 216 217 215 216 216 215 217 220 226 232 233 239 242 238 238 242 247 254 250 248 245 243 267 273 267 265 267 263 255 247 242 240 239 238 234 232 233 235 236 237 238 240 243 244 245 245 245 245 246 247 248 249 251 252 253 254 254 253 253 253 252 252 252 254 254 254 253 253 252 252 251 252 255 259 261 262 263 265 267 265 257 250
215 213 212 213 214 216 215 213 210 212 215 219 225 227 224 222 223 227 233 231 236 261 252 252 249 238 234 253 266 271 272 268 261 254 247 242 240 239 236 234 233 234 235 236 238 240 242 243 244 245 245 245 246 247 248 250 251 252 253 254 254 253 253 253 253 252 253 255 257 257 255 253 251 251 251 252 254 258 261 262 264 266 265 255 246 245
213 215 215 213 212 212 211 208 205 207 211 216 222 220 210 189 188 213 226 221 231 247 247 245 243 237 241 252 263 266 265 265 265 261 254 246 243 243 242 241 240 239 238 238 238 240 241 243 244 244 245 246 246 247 248 249 250 251 252 253 254 254 254 254 254 254 256 258 259 259 258 255 253 253 252 252 254 258 260 262 265 263 254 242 239 240
206 217 219 214 211 209 209 207 204 203 205 211 216 212 200 172 113 211 235 283 257 251 243 241 245 246 251 261 269 269 267 264 261 259 258 254 249 247 246 243 243 243 242 240 239 241 242 244 246 247 247 247 247 248 249 249 250 251 251 253 254 255 255 255 256 256 257 258 259 258 257 256 255 254 253 253 255 257 260 262 261 253 241 235 234 234
195 210 215 211 209 208 208 210 210 208 206 210 217 217 213 205 190 203 213 206 237 245 232 224 230 237 235 253 274 273 263 250 249 253 256 259 257 254 252 247 244 241 239 240 241 243 244 245 247 249 249 249 249 249 249 250 251 251 252 253 253 254 255 255 256 257 257 257 256 255 254 254 254 253 253 253 255 257 259 258 251 240 233 230 230 233
198 204 209 207 208 207 206 207 211 213 208 208 213 217 220 217 210 212 217 215 223 237 223 214 225 242 243 243 250 258 258 244 242 249 247 249 252 251 250 247 242 239 241 247 251 251 250 248 248 248 249 250 250 250 250 250 250 251 252 253 253 253 254 254 254 255 255 254 253 252 251 250 251 251 252 253 254 255 254 249 239 230 227 227 229 236
197 201 206 206 206 207 207 207 210 212 210 207 207 211 218 219 216 218 221 218 217 236 235 226 239 252 258 264 258 256 263 259 251 253 249 249 253 252 251 248 244 245 250 256 260 259 255 251 250 249 249 250 250 251 251 251 251 250 250 251 252 253 253 254 254 253 253 252 251 250 248 247 248 249 251 251 251 250 246 237 229 225 224 227 232 240
196 194 200 206 206 208 209 209 211 214 214 211 207 209 213 214 218 223 223 186 188 248 246 231 244 253 252 258 260 254 258 255 247 247 246 248 251 253 256 255 250 250 253 257 261 261 258 252 250 249 249 250 250 251 251 251 252 251 251 250 251 252 252 253 253 252 251 250 248 247 246 246 247 247 247 247 245 241 234 227 224 223 225 229 236 243
199 193 195 203 205 207 208 209 210 211 215 216 213 211 208 206 212 214 213 209 202 237 268 240 244 250 244 241 247 246 242 242 239 238 240 243 249 258 266 265 260 256 255 256 259 261 261 258 255 253 253 252 251 251 251 251 251 251 250 251 250 251 251 251 251 250 247 244 242 243 243 243 243 243 242 240 236 231 225 222 222 224 227 234 241 249
202 195 191 199 202 203 206 208 207 207 209 212 214 211 210 212 212 209 211 215 202 206 255 254 243 246 248 250 254 256 256 257 258 257 256 254 252 255 259 259 259 260 260 259 259 259 260 260 258 255 253 252 252 252 252 252 251 250 250 250 250 251 251 250 250 248 244 241 239 239 240 239 238 236 234 231 226 222 220 220 222 227 233 241 249 257
205 203 197 194 198 201 205 209 210 211 210 209 210 206 208 212 210 212 219 219 219 212 204 230 257 252 253 257 258 257 258 259 260 265 267 256 245 240 242 247 255 261 262 262 263 262 261 260 257 254 253 253 253 252 253 253 253 252 251 249 249 248 248 248 247 245 241 238 236 236 236 234 232 229 225 222 219 218 219 222 228 234 242 249 256 263
203 203 200 193 196 203 209 212 214 216 216 215 214 210 209 210 204 202 216 219 221 226 222 217 262 257 255 257 258 256 255 257 261 268 268 253 237 225 224 242 266 275 270 269 270 268 265 261 257 255 255 255 254 253 253 252 251 251 250 248 246 245 244 243 241 240 239 236 235 233 232 229 225 222 219 217 218 219 223 229 236 242 249 256 262 267
204 202 202 203 207 211 213 214 215 216 218 218 218 216 213 211 208 204 206 216 215 223 236 240 264 260 255 253 256 256 254 256 259 258 251 235 217 212 223 261 287 288 279 277 274 272 271 266 260 258 257 258 260 260 258 255 252 250 247 243 241 239 238 238 238 237 237 236 234 231 228 225 221 219 218 218 221 225 230 236 243 249 255 260 265 269
205 202 200 201 210 214 213 215 217 216 217 217 218 218 213 211 212 211 217 223 214 219 228 227 261 260 255 251 254 255 253 253 251 248 243 228 212 216 252 284 290 284 283 284 278 275 278 277 272 267 264 265 268 267 262 256 250 244 239 235 233 233 234 236 237 238 237 235 232 228 226 223 221 220 221 223 227 232 237 243 248 254 259 263 267 272
202 199 195 183 171 207 211 218 219 216 216 216 217 217 216 215 214 215 223 227 228 230 225 216 247 256 254 254 253 252 254 254 249 246 240 225 219 247 280 288 284 283 289 289 281 279 282 284 281 273 267 267 269 268 260 251 242 235 232 230 231 232 234 236 237 237 236 234 231 228 226 224 223 224 227 230 234 239 244 249 254 258 262 266 270 275
203 202 201 191 172 191 206 214 217 214 212 215 218 217 218 218 216 218 222 223 233 235 225 224 240 249 253 254 250 248 256 256 246 241 237 230 243 268 279 280 282 288 292 289 280 279 284 285 283 276 270 264 263 264 260 251 243 238 237 238 238 237 238 239 239 238 237 235 232 230 228 228 228 230 234 238 241 245 250 254 258 261 264 268 271 276
208 207 210 210 209 213 215 218 220 217 214 218 221 220 219 219 219 220 222 224 229 231 230 234 241 246 251 249 244 246 254 252 242 238 239 244 258 270 275 278 284 288 290 284 279 281 286 287 284 277 271 263 258 258 258 256 253 250 248 248 247 245 243 242 241 240 238 237 235 233 233 233 235 238 241 244 247 250 254 258 261 263 266 269 272 276
208 208 215 218 218 221 222 224 226 224 222 224 224 222 221 220 220 220 223 227 228 230 239 242 244 249 251 249 250 253 256 256 254 252 253 258 264 271 275 278 283 286 286 282 280 283 285 288 285 275 266 260 255 254 255 255 256 255 253 251 249 247 245 242 241 240 240 240 239 238 238 239 241 243 245 248 251 254 257 260 263 266 269 272 274 277
210 212 216 217 218 222 224 226 230 228 230 232 229 227 226 223 224 225 227 230 230 232 241 246 249 253 255 256 258 259 260 262 263 264 264 265 268 272 275 278 281 285 286 283 280 277 279 285 286 276 264 255 250 250 252 254 255 255 255 254 252 249 246 244 242 242 243 244 243 243 243 243 245 247 250 252 255 257 259 262 265 269 271 274 275 277
211 214 218 218 219 223 225 229 233 233 236 236 233 232 231 229 231 234 235 236 236 241 247 251 257 261 262 262 263 264 265 265 265 266 266 267 267 267 268 275 282 286 284 279 273 270 274 281 282 277 268 256 248 248 250 252 254 255 256 256 255 254 251 248 245 245 245 246 245 245 246 247 249 251 253 255 257 259 262 265 268 270 271 273 275 277
209 213 217 219 220 224 227 230 233 236 239 240 240 239 237 235 236 237 238 238 239 245 251 255 260 264 264 263 264 266 266 265 264 264 264 265 265 265 269 278 284 284 279 274 269 268 272 277 279 278 270 255 244 245 249 251 253 254 254 255 255 255 253 251 248 247 246 246 247 247 249 250 252 254 256 258 260 263 265 267 269 270 271 273 275 277
208 209 214 216 218 224 228 229 231 233 237 240 242 241 237 235 234 235 236 236 238 245 251 252 255 259 262 265 266 267 268 269 269 268 267 265 265 267 274 280 279 276 274 271 269 269 270 271 271 268 258 247 243 246 251 254 255 254 253 254 255 255 254 253 251 249 248 248 249 250 251 252 254 256 258 260 263 265 267 268 270 271 273 274 275 277
208 208 210 211 214 221 225 226 225 224 225 235 238 237 235 234 235 237 239 240 242 245 248 248 252 258 264 268 269 272 275 277 279 280 278 271 266 266 269 272 271 269 270 270 269 269 268 266 262 257 251 250 255 259 260 259 257 256 254 253 253 255 255 255 254 252 251 251 251 252 253 254 256 257 260 262 264 266 267 269 270 272 273 274 275 277
206 210 211 211 211 216 218 216 212 204 213 234 238 238 237 236 236 238 240 242 243 244 247 251 256 262 266 268 272 275 279 281 283 284 280 271 264 262 262 264 265 265 265 266 266 266 265 263 262 260 258 258 262 265 266 263 259 256 253 251 251 252 254 255 256 254 253 253 253 254 255 256 258 259 261 263 265 267 268 270 271 272 273 274 275 277
207 207 210 210 207 201 195 190 181 199 225 234 241 245 244 242 241 243 246 248 248 249 253 257 260 262 264 268 272 275 278 281 282 281 277 269 264 263 263 263 263 264 265 265 264 263 262 262 263 265 266 266 266 267 267 266 262 257 253 251 251 252 253 255 255 255 254 254 254 255 256 258 259 261 262 264 266 268 269 270 272 272 273 274 275 277
213 209 208 205 200 189 175 171 189 233 235 237 244 246 243 239 236 240 246 249 249 251 253 257 261 263 264 267 271 274 277 279 278 277 274 269 267 266 266 265 264 265 266 266 267 267 267 266 266 266 267 267 267 267 266 266 264 260 257 254 253 252 253 254 255 255 255 255 255 256 257 258 260 261 263 265 267 269 270 271 272 272 273 274 275 277
220 217 212 202 198 196 182 187 217 242 248 247 244 241 239 238 238 242 249 254 255 253 255 260 265 267 267 269 272 274 276 277 276 271 268 267 268 267 266 266 266 266 267 267 268 269 268 268 268 267 266 265 263 263 262 262 262 260 259 256 255 254 254 254 255 256 255 255 255 256 257 258 260 261 263 266 268 270 271 272 273 273 273 274 275 276
218 221 217 207 202 200 193 196 217 240 251 248 242 240 242 244 248 251 256 261 261 257 256 261 266 269 271 273 274 273 271 270 270 268 267 270 271 269 268 269 268 267 266 265 265 265 265 264 265 265 264 261 258 256 256 256 256 256 255 255 255 255 255 255 255 255 256 256 256 256 257 258 259 261 263 265 267 269 271 272 273 273 273 274 275 275
214 218 221 215 207 201 197 198 201 222 240 246 248 248 245 243 243 238 246 259 261 259 259 262 265 270 273 273 273 271 265 263 267 273 280 278 273 271 269 268 266 264 261 259 259 259 259 258 257 257 256 254 250 248 249 251 252 252 252 253 254 255 256 255 255 255 256 257 257 257 257 258 259 260 262 264 266 268 270 271 272 272 273 273 274 274
212 212 213 213 212 208 204 207 218 233 244 252 257 253 244 236 222 197 216 252 257 261 270 269 270 275 275 273 270 265 260 263 270 280 287 278 268 265 262 262 263 262 260 259 258 257 256 254 252 250 249 248 245 244 245 248 250 251 252 253 254 256 257 256 254 254 255 255 255 256 257 258 259 261 262 264 266 267 269 271 271 271 271 272 272 272
209 209 208 211 214 212 209 212 226 240 246 249 251 245 232 213 196 196 226 249 257 270 279 277 278 279 276 272 266 262 262 266 271 278 281 273 266 262 260 261 263 264 266 266 264 262 259 256 253 250 247 244 242 242 244 246 248 250 252 253 255 256 258 257 253 251 252 253 254 255 256 258 260 261 263 265 266 266 268 270 270 270 269 269 270 271
203 204 207 211 211 212 213 215 229 247 249 247 242 225 204 201 210 229 249 261 269 277 280 281 283 279 274 270 268 267 267 264 266 271 275 274 273 270 268 268 266 267 271 271 271 270 266 263 260 256 253 250 247 246 246 247 249 251 253 254 255 257 259 258 255 251 251 252 254 255 256 258 260 262 263 264 265 266 267 268 268 268 268 268 268 269
206 201 203 209 211 211 211 210 223 243 244 242 230 210 210 227 244 256 266 273 275 278 280 282 282 279 273 269 267 267 268 266 267 270 271 272 273 271 271 271 270 269 269 269 270 270 267 265 262 258 257 255 253 252 252 253 254 255 256 258 258 259 259 258 256 253 252 253 254 255 256 258 259 261 262 263 263 264 265 266 266 266 266 266 266 267
213 209 208 212 211 204 201 210 227 238 242 245 243 235 237 250 261 268 271 272 274 279 280 280 282 282 279 274 271 270 270 270 268 267 268 270 272 273 275 275 273 270 268 266 265 263 262 262 261 260 259 258 257 257 257 258 258 258 259 260 260 260 260 258 256 255 254 253 253 254 256 257 258 260 261 261 262 263 263 264 264 264 264 264 264 265
221 224 225 226 224 221 224 234 243 248 252 255 255 253 255 260 264 268 269 271 275 277 276 279 281 281 278 277 275 273 271 270 269 268 270 272 273 276 278 277 274 271 268 266 264 262 262 262 262 262 262 262 261 261 261 261 261 260 259 259 259 260 260 259 257 256 254 253 253 254 255 257 258 259 259 260 261 262 262 262 262 262 262 262 263 264
231 234 234 236 237 239 243 248 250 252 254 255 255 257 258 259 263 268 271 273 274 274 275 277 277 275 272 270 270 270 269 270 272 274 275 276 276 276 275 274 272 267 262 262 262 261 261 263 264 265 265 265 264 262 261 260 260 259 258 257 257 257 257 258 257 256 255 254 254 254 255 255 256 257 258 259 260 260 260 260 260 261 262 262 264 266
234 234 233 234 236 236 241 244 246 247 251 254 256 258 258 259 263 267 269 269 270 272 274 275 274 273 271 268 267 267 267 268 270 274 276 278 277 274 271 269 267 263 261 261 262 263 264 265 266 268 270 270 269 267 265 263 261 259 258 257 256 257 257 257 258 257 256 255 254 253 254 254 255 256 257 258 258 258 258 259 260 261 263 264 266 269
236 235 232 232 234 237 243 247 248 247 249 250 252 255 257 259 262 264 266 267 268 270 272 272 272 273 271 268 266 266 267 269 270 271 274 274 272 269 268 267 265 263 262 262 265 268 270 268 269 270 272 272 271 270 268 266 263 261 260 259 259 259 258 258 258 257 257 255 253 253 253 253 254 255 255 256 256 256 258 259 261 263 264 266 269 273
239 236 235 236 236 238 243 246 245 244 244 246 248 251 254 257 259 261 261 262 264 266 268 269 271 272 270 268 266 265 266 267 268 267 267 265 264 264 263 263 264 265 266 268 271 273 274 273 273 273 272 272 272 271 270 268 265 263 262 261 262 261 261 260 258 257 255 254 252 252 252 253 253 254 254 254 255 257 260 262 263 264 265 268 273 277
237 236 238 237 234 237 242 244 244 245 248 251 253 254 255 256 257 257 258 261 263 265 267 268 270 270 269 267 266 265 264 265 266 265 262 260 260 261 260 261 264 268 272 274 275 275 276 275 275 274 275 275 275 274 271 268 264 262 262 263 264 265 263 261 258 255 254 253 252 252 252 252 253 253 253 255 258 261 263 264 264 265 268 271 275 278
236 238 240 238 238 243 248 249 248 250 253 255 256 256 256 257 257 257 259 262 263 264 265 266 266 266 266 265 264 263 262 261 262 263 262 259 257 257 259 263 268 272 274 273 273 274 275 275 276 278 279 279 277 273 269 265 262 261 261 263 265 266 265 262 258 255 253 252 252 252 252 252 253 254 257 260 263 264 264 263 265 268 271 274 276 278
Height
3136 3136 3134 3135 3137 3140 3142 3144 3147 3152 3156 3158 3159 3160 3160 3161 3161 3163 3165 3165 3166 3166 3166 3167 3167 3167 3169 3170 3172 3173 3172 3173 3174 3174 3175 3176 3176 3177 3178 3179 3180 3181 3183 3184 3184 3185 3186 3187 3188 3188 3189 3190 3191 3191 3192 3193 3194 3196 3197 3197 3198 3199 3199 3199 3200 3201 3202 3203 3204 3205 3205 3206 3206 3206 3206 3206 3206 3206 3205 3205 3205 3205 3205 3204 3204 3203
3134 3132 3132 3135 3139 3142 3144 3146 3149 3153 3156 3158 3159 3159 3159 3159 3160 3161 3163 3163 3164 3163 3163 3165 3164 3164 3165 3167 3169 3170 3169 3170 3172 3172 3173 3173 3174 3175 3176 3177 3178 3179 3181 3181 3181 3183 3184 3185 3186 3186 3187 3188 3189 3190 3190 3191 3193 3194 3195 3196 3197 3197 3197 3198 3199 3199 3200 3201 3202 3202 3203 3203 3203 3203 3204 3204 3204 3203 3203 3203 3203 3203 3203 3202 3202 3201
3132 3130 3132 3137 3140 3143 3145 3147 3149 3152 3154 3157 3158 3158 3157 3157 3158 3159 3160 3161 3161 3161 3162 3162 3161 3161 3163 3164 3165 3166 3166 3167 3169 3170 3170 3171 3171 3172 3174 3175 3176 3177 3178 3179 3179 3180 3181 3183 3184 3184 3185 3186 3187 3188 3188 3189 3190 3191 3192 3193 3194 3195 3195 3196 3197 3197 3198 3199 3199 3199 3200 3200 3201 3201 3202 3202 3202 3202 3201 3201 3201 3200 3200 3200 3199 3199
3127 3126 3131 3137 3140 3142 3145 3147 3148 3149 3151 3153 3155 3156 3155 3156 3157 3156 3157 3159 3159 3159 3160 3160 3159 3158 3160 3161 3161 3162 3164 3164 3166 3166 3167 3167 3168 3169 3171 3172 3173 3174 3176 3176 3177 3178 3179 3180 3181 3182 3183 3184 3185 3185 3186 3187 3188 3188 3189 3191 3192 3193 3194 3194 3195 3196 3196 3196 3196 3197 3197 3197 3198 3199 3200 3200 3200 3200 3199 3198 3198 3198 3197 3197 3197 3196
3123 3125 3132 3136 3139 3141 3144 3146 3147 3147 3148 3149 3151 3153 3154 3155 3156 3155 3156 3157 3157 3158 3158 3158 3157 3154 3155 3157 3157 3160 3161 3161 3162 3163 3163 3164 3165 3167 3168 3169 3170 3171 3173 3174 3175 3176 3176 3177 3178 3179 3181 3181 3182 3183 3184 3185 3185 3186 3187 3188 3190 3190 3191 3192 3192 3193 3193 3193 3194 3194 3195 3195 3196 3197 3197 3197 3197 3197 3196 3195 3195 3195 3195 3195 3194 3194
3125 3128 3132 3135 3138 3140 3143 3144 3145 3146 3147 3148 3149 3150 3152 3154 3155 3154 3155 3155 3156 3156 3156 3157 3156 3150 3151 3153 3154 3157 3157 3157 3159 3159 3160 3161 3163 3164 3165 3166 3168 3168 3170 3171 3172 3173 3174 3175 3176 3176 3177 3178 3179 3180 3181 3182 3183 3183 3184 3185 3186 3187 3188 3189 3190 3190 3190 3190 3191 3191 3192 3193 3193 3194 3194 3195 3194 3193 3193 3192 3192 3192 3192 3192 3191 3191
3125 3128 3131 3133 3136 3138 3141 3142 3143 3145 3147 3147 3147 3149 3151 3152 3154 3154 3153 3154 3154 3153 3154 3155 3154 3149 3148 3150 3152 3153 3153 3154 3155 3155 3157 3159 3160 3161 3162 3164 3165 3165 3167 3168 3169 3170 3171 3172 3173 3174 3175 3175 3176 3177 3178 3179 3179 3180 3181 3182 3182 3183 3185 3186 3186 3187 3187 3187 3188 3189 3189 3190 3190 3191 3191 3191 3191 3190 3190 3190 3189 3189 3189 3189 3188 3188
3121 3125 3128 3132 3134 3136 3137 3139 3142 3145 3145 3145 3146 3149 3150 3151 3153 3153 3153 3153 3152 3152 3152 3152 3152 3150 3146 3146 3150 3150 3150 3151 3152 3153 3154 3156 3157 3158 3160 3161 3162 3163 3164 3165 3166 3167 3168 3169 3170 3171 3172 3173 3174 3174 3175 3175 3176 3177 3178 3178 3179 3180 3181 3182 3183 3183 3184 3184 3185 3186 3186 3187 3187 3188 3188 3187 3187 3187 3187 3187 3187 3186 3186 3186 3186 3185
3119 3122 3125 3128 3131 3132 3134 3138 3142 3143 3144 3144 3147 3148 3149 3150 3151 3152 3152 3152 3151 3151 3150 3149 3150 3149 3143 3143 3147 3148 3148 3149 3150 3151 3152 3153 3155 3156 3157 3158 3159 3160 3161 3161 3162 3163 3164 3165 3167 3168 3169 3169 3170 3170 3171 3172 3173 3173 3174 3175 3176 3177 3177 3178 3179 3180 3181 3181 3182 3182 3183 3183 3184 3185 3184 3184 3184 3184 3184 3184 3184 3184 3183 3183 3183 3183
3119 3121 3123 3126 3127 3129 3133 3138 3140 3142 3142 3144 3146 3147 3148 3149 3149 3150 3151 3150 3151 3149 3147 3148 3149 3147 3142 3140 3144 3145 3145 3147 3149 3150 3151 3151 3152 3153 3154 3155 3156 3157 3157 3158 3159 3160 3161 3162 3163 3164 3165 3166 3167 3167 3168 3168 3169 3170 3170 3171 3172 3173 3174 3175 3176 3176 3177 3178 3179 3179 3180 3180 3181 3181 3181 3181 3181 3181 3181 3181 3181 3181 3181 3180 3180 3180
3118 3120 3122 3123 3125 3128 3133 3136 3138 3141 3142 3144 3145 3145 3147 3147 3148 3149 3149 3149 3150 3146 3144 3146 3147 3147 3142 3138 3139 3142 3143 3145 3146 3148 3149 3150 3150 3151 3151 3152 3153 3153 3154 3155 3156 3157 3158 3159 3160 3161 3161 3162 3163 3163 3164 3165 3166 3166 3167 3168 3169 3170 3171 3171 3172 3173 3174 3174 3175 3176 3177 3177 3178 3178 3178 3178 3178 3178 3178 3178 3178 3178 3178 3178 3178 3177
3117 3118 3119 3120 3123 3127 3131 3134 3136 3139 3141 3142 3143 3143 3145 3146 3147 3148 3147 3148 3148 3144 3143 3144 3145 3145 3141 3136 3137 3140 3141 3143 3144 3145 3146 3147 3148 3148 3149 3149 3150 3150 3151 3152 3153 3154 3155 3155 3156 3157 3158 3159 3159 3160 3161 3161 3162 3163 3163 3164 3165 3166 3167 3168 3169 3169 3170 3171 3172 3172 3173 3174 3174 3174 3174 3174 3174 3174 3174 3174 3174 3175 3175 3175 3175 3175
3114 3115 3116 3118 3121 3125 3128 3131 3133 3135 3137 3139 3140 3141 3143 3144 3146 3146 3146 3146 3145 3142 3142 3143 3143 3141 3135 3133 3136 3137 3139 3141 3142 3142 3143 3144 3145 3146 3146 3147 3147 3147 3147 3148 3149 3150 3151 3152 3152 3153 3154 3154 3155 3156 3157 3157 3158 3158 3159 3160 3160 3162 3163 3164 3165 3166 3166 3167 3168 3169 3169 3170 3170 3170 3171 3171 3171 3171 3171 3171 3171 3172 3172 3172 3173 3173
3113 3115 3114 3116 3118 3121 3125 3126 3128 3130 3132 3135 3136 3138 3140 3142 3144 3145 3145 3145 3143 3141 3141 3142 3143 3137 3131 3132 3134 3134 3136 3138 3138 3139 3140 3141 3142 3143 3143 3144 3144 3145 3145 3145 3146 3146 3147 3148 3148 3149 3150 3150 3151 3152 3152 3153 3154 3154 3155 3156 3157 3158 3159 3160 3161 3162 3163 3164 3164 3165 3165 3166 3166 3166 3167 3167 3167 3167 3168 3168 3168 3169 3169 3170 3170 3170
3108 3108 3109 3112 3115 3118 3121 3124 3126 3129 3131 3133 3135 3137 3137 3137 3139 3141 3141 3141 3139 3138 3139 3141 3139 3132 3128 3130 3131 3131 3133 3134 3135 3136 3137 3138 3139 3139 3140 3141 3142 3142 3142 3143 3143 3144 3144 3145 3145 3145 3146 3146 3147 3148 3149 3149 3150 3150 3151 3152 3153 3154 3155 3156 3157 3158 3159 3160 3161 3161 3161 3162 3162 3162 3163 3163 3164 3164 3165 3165 3165 3166 3166 3167 3167 3168
3102 3103 3104 3108 3112 3115 3119 3122 3125 3128 3130 3131 3133 3134 3133 3133 3135 3137 3137 3136 3136 3137 3137 3136 3133 3127 3126 3128 3129 3131 3131 3132 3133 3133 3134 3135 3136 3137 3137 3138 3139 3139 3140 3140 3140 3140 3141 3141 3141 3142 3142 3143 3143 3144 3145 3146 3146 3147 3147 3148 3149 3150 3151 3152 3153 3154 3155 3155 3156 3157 3157 3158 3158 3158 3159 3160 3161 3161 3161 3162 3162 3163 3164 3164 3165 3165
3099 3102 3104 3107 3111 3114 3117 3120 3123 3125 3126 3127 3128 3128 3129 3132 3135 3135 3135 3135 3136 3135 3132 3130 3127 3124 3126 3126 3127 3129 3129 3130 3132 3132 3133 3134 3134 3134 3135 3136 3136 3136 3136 3137 3137 3137 3137 3137 3138 3138 3139 3139 3140 3140 3141 3142 3142 3143 3143 3144 3145 3146 3146 3147 3148 3149 3150 3151 3152 3152 3153 3153 3154 3155 3156 3157 3157 3158 3158 3159 3160 3160 3161 3162 3163 3163
3096 3101 3104 3107 3110 3112 3115 3118 3120 3122 3123 3124 3124 3125 3129 3133 3134 3133 3134 3134 3135 3133 3128 3125 3124 3123 3124 3124 3124 3126 3127 3127 3129 3130 3131 3131 3131 3132 3133 3133 3133 3133 3134 3133 3134 3134 3134 3134 3134 3134 3135 3136 3136 3137 3137 3138 3138 3139 3140 3140 3141 3142 3142 3143 3144 3145 3146 3147 3148 3148 3149 3149 3150 3151 3152 3153 3154 3154 3155 3156 3157 3158 3159 3160 3160 3161
3095 3099 3102 3105 3106 3109 3113 3115 3117 3119 3120 3120 3121 3124 3127 3128 3128 3129 3131 3131 3132 3131 3126 3122 3121 3120 3120 3121 3123 3125 3126 3126 3127 3128 3128 3129 3130 3130 3130 3131 3131 3131 3131 3131 3131 3131 3131 3131 3131 3131 3132 3132 3133 3133 3134 3134 3135 3135 3136 3136 3137 3138 3139 3140 3140 3141 3142 3143 3143 3144 3145 3145 3146 3147 3148 3149 3150 3151 3152 3154 3155 3156 3157 3157 3158 3158
3094 3097 3100 3102 3104 3107 3110 3110 3111 3113 3116 3119 3122 3123 3124 3124 3124 3125 3127 3127 3127 3128 3125 3121 3119 3115 3114 3118 3121 3123 3124 3125 3125 3126 3126 3127 3127 3127 3127 3128 3128 3128 3128 3128 3128 3128 3128 3129 3128 3128 3129 3129 3129 3130 3130 3131 3131 3132 3133 3133 3134 3135 3135 3136 3137 3137 3138 3139 3140 3140 3141 3142 3143 3144 3145 3147 3148 3149 3150 3152 3153 3154 3155 3155 3155 3155
3093 3095 3097 3100 3103 3104 3104 3104 3106 3110 3114 3116 3118 3120 3120 3122 3123 3124 3124 3124 3124 3124 3123 3121 3116 3110 3110 3115 3117 3119 3121 3123 3123 3123 3124 3124 3124 3125 3125 3125 3126 3126 3125 3125 3126 3126 3126 3126 3126 3126 3126 3126 3126 3126 3127 3128 3128 3129 3130 3130 3131 3132 3132 3133 3134 3134 3135 3136 3136 3137 3138 3139 3140 3142 3143 3144 3146 3147 3148 3150 3151 3151 3152 3152 3152 3152
3089 3092 3094 3097 3098 3099 3100 3103 3107 3110 3112 3112 3113 3114 3115 3117 3119 3121 3121 3120 3120 3121 3120 3119 3112 3103 3106 3112 3113 3116 3119 3119 3121 3121 3121 3122 3122 3122 3123 3123 3124 3123 3123 3123 3123 3123 3123 3123 3123 3123 3123 3123 3123 3124 3124 3125 3125 3126 3126 3127 3128 3128 3129 3130 3131 3132 3132 3133 3134 3135 3136 3137 3138 3140 3141 3143 3144 3145 3146 3147 3148 3149 3149 3149 3149 3149
3087 3091 3093 3095 3096 3097 3100 3103 3105 3107 3108 3110 3111 3111 3112 3115 3114 3115 3115 3115 3118 3118 3116 3118 3108 3094 3100 3110 3110 3113 3116 3117 3119 3119 3119 3120 3119 3120 3121 3121 3121 3121 3121 3121 3121 3120 3120 3120 3121 3121 3121 3122 3122 3122 3122 3122 3123 3123 3123 3124 3125 3125 3126 3127 3128 3129 3130 3131 3132 3133 3134 3135 3137 3138 3140 3141 3142 3143 3144 3145 3145 3146 3146 3146 3146 3146
3085 3088 3090 3092 3095 3096 3098 3101 3102 3104 3105 3106 3106 3107 3110 3112 3111 3113 3113 3113 3115 3113 3112 3117 3105 3086 3094 3107 3107 3109 3113 3114 3117 3117 3118 3118 3117 3118 3119 3118 3119 3119 3119 3119 3119 3118 3118 3118 3119 3119 3119 3120 3120 3120 3120 3120 3121 3121 3121 3122 3122 3123 3124 3125 3126 3127 3128 3129 3130 3131 3132 3134 3135 3137 3138 3139 3140 3141 3141 3142 3142 3143 3143 3143 3143 3143
3079 3082 3085 3089 3093 3096 3098 3098 3097 3097 3098 3099 3101 3105 3107 3109 3112 3113 3112 3113 3113 3108 3109 3113 3098 3082 3091 3103 3104 3107 3110 3111 3114 3115 3115 3116 3115 3116 3116 3116 3117 3117 3117 3118 3117 3117 3117 3116 3117 3117 3117 3118 3118 3118 3119 3119 3119 3119 3120 3120 3121 3122 3123 3124 3125 3126 3127 3128 3129 3130 3131 3132 3133 3135 3136 3137 3137 3138 3139 3139 3139 3139 3140 3140 3139 3139
3074 3076 3078 3082 3086 3089 3088 3086 3084 3087 3093 3096 3098 3101 3104 3107 3109 3109 3111 3112 3105 3101 3104 3101 3087 3083 3092 3099 3101 3106 3108 3109 3112 3113 3113 3114 3113 3114 3114 3114 3115 3115 3115 3115 3115 3115 3115 3115 3115 3115 3115 3116 3116 3117 3117 3117 3118 3118 3119 3119 3120 3121 3122 3122 3123 3124 3125 3126 3127 3128 3129 3130 3132 3133 3133 3134 3135 3135 3135 3136 3136 3136 3136 3136 3136 3135
3072 3072 3072 3073 3074 3075 3075 3076 3079 3085 3091 3091 3093 3097 3100 3103 3105 3107 3108 3102 3095 3097 3097 3088 3083 3088 3093 3095 3099 3103 3106 3107 3110 3111 3112 3112 3111 3112 3112 3112 3112 3112 3113 3113 3113 3113 3113 3112 3113 3113 3113 3113 3114 3114 3115 3116 3116 3117 3117 3118 3119 3119 3120 3121 3121 3122 3123 3124 3125 3126 3127 3128 3129 3130 3131 3131 3132 3132 3132 3132 3133 3132 3132 3132 3132 3131
3067 3067 3068 3069 3071 3072 3075 3078 3081 3085 3086 3086 3089 3094 3096 3099 3101 3101 3096 3090 3093 3097 3088 3081 3086 3088 3087 3093 3098 3100 3103 3106 3107 3108 3109 3109 3109 3109 3109 3109 3109 3110 3110 3111 3111 3111 3110 3110 3110 3110 3110 3110 3111 3112 3113 3114 3114 3115 3115 3116 3117 3117 3118 3119 3119 3120 3121 3122 3123 3124 3125 3125 3126 3127 3128 3128 3128 3129 3129 3129 3129 3129 3128 3128 3127 3127
3063 3063 3064 3067 3071 3073 3075 3078 3080 3082 3084 3085 3088 3090 3092 3095 3094 3090 3087 3088 3094 3091 3080 3081 3087 3083 3083 3092 3096 3097 3102 3103 3103 3105 3105 3105 3106 3106 3106 3107 3107 3107 3107 3108 3108 3108 3107 3107 3107 3107 3107 3107 3108 3109 3110 3111 3112 3113 3113 3114 3114 3115 3116 3116 3117 3118 3119 3119 3120 3121 3122 3122 3123 3124 3124 3125 3125 3125 3125 3125 3125 3125 3124 3124 3123 3123
3060 3060 3063 3067 3070 3071 3075 3077 3078 3081 3083 3083 3085 3087 3089 3089 3086 3084 3085 3089 3092 3085 3079 3084 3086 3077 3081 3089 3091 3094 3099 3100 3100 3101 3101 3102 3103 3103 3103 3104 3104 3104 3104 3104 3105 3104 3104 3104 3104 3104 3104 3104 3105 3106 3107 3108 3109 3110 3111 3111 3112 3113 3113 3114 3115 3115 3116 3116 3117 3118 3118 3119 3120 3120 3121 3121 3121 3121 3121 3121 3121 3121 3121 3120 3119 3119
3057 3060 3063 3066 3069 3071 3073 3074 3076 3079 3080 3080 3083 3084 3083 3082 3081 3081 3082 3086 3087 3081 3080 3087 3083 3072 3074 3083 3087 3091 3094 3094 3096 3097 3097 3098 3099 3099 3100 3100 3100 3101 3101 3101 3101 3101 3101 3102 3101 3101 3101 3101 3102 3103 3104 3105 3106 3107 3108 3108 3109 3110 3111 3111 3112 3112 3113 3113 3114 3115 3115 3116 3117 3117 3117 3118 3118 3118 3118 3117 3117 3117 3117 3116 3115 3114
3055 3059 3061 3065 3067 3067 3068 3071 3074 3075 3077 3079 3077 3074 3073 3073 3074 3076 3078 3082 3082 3078 3082 3086 3076 3064 3069 3078 3083 3086 3088 3089 3091 3092 3093 3094 3094 3095 3096 3096 3096 3097 3097 3097 3097 3097 3098 3098 3099 3099 3099 3099 3100 3100 3101 3102 3103 3104 3105 3106 3106 3107 3107 3108 3108 3109 3110 3110 3111 3111 3112 3113 3113 3113 3114 3114 3114 3114 3114 3113 3113 3113 3112 3112 3111 3110
3053 3055 3058 3062 3063 3063 3066 3069 3070 3074 3077 3073 3062 3058 3063 3067 3071 3075 3076 3077 3077 3078 3080 3075 3064 3064 3073 3077 3078 3082 3084 3085 3086 3088 3090 3090 3091 3091 3091 3091 3092 3092 3093 3094 3094 3094 3095 3095 3096 3096 3096 3097 3097 3098 3099 3099 3100 3100 3101 3102 3103 3103 3104 3104 3105 3106 3106 3107 3107 3108 3108 3109 3109 3109 3110 3110 3110 3109 3109 3109 3109 3108 3108 3107 3106 3105
3049 3051 3054 3056 3057 3059 3062 3065 3069 3074 3070 3056 3047 3051 3060 3065 3069 3071 3069 3069 3073 3074 3072 3066 3063 3069 3075 3074 3075 3078 3079 3080 3081 3083 3085 3086 3086 3086 3086 3087 3088 3088 3089 3090 3090 3091 3092 3092 3093 3093 3093 3094 3094 3095 3095 3095 3096 3097 3097 3098 3098 3099 3100 3100 3101 3102 3102 3103 3103 3104 3104 3105 3105 3105 3105 3105 3105 3105 3105 3104 3104 3103 3103 3102 3101 3101
3043 3047 3050 3052 3054 3057 3059 3063 3068 3065 3052 3043 3046 3053 3058 3062 3065 3065 3063 3066 3070 3070 3068 3064 3062 3067 3071 3071 3073 3075 3075 3076 3077 3077 3079 3081 3081 3082 3082 3083 3084 3084 3085 3085 3086 3087 3088 3089 3089 3090 3090 3091 3091 3091 3091 3091 3092 3092 3093 3093 3094 3094 3095 3096 3097 3097 3098 3099 3099 3100 3100 3101 3101 3101 3101 3101 3101 3100 3100 3100 3099 3098 3098 3097 3097 3096
3040 3044 3047 3050 3052 3054 3056 3058 3057 3049 3042 3044 3049 3050 3052 3057 3060 3060 3060 3062 3064 3064 3063 3060 3057 3062 3068 3069 3070 3072 3072 3072 3070 3070 3073 3075 3076 3077 3077 3078 3079 3080 3080 3081 3081 3082 3083 3084 3085 3085 3086 3086 3086 3087 3087 3087 3088 3088 3088 3089 3089 3090 3091 3091 3092 3093 3093 3094 3095 3095 3096 3096 3096 3097 3096 3096 3096 3096 3095 3095 3094 3093 3093 3092 3092 3091
3039 3041 3043 3046 3048 3049 3051 3051 3049 3047 3043 3041 3041 3042 3045 3050 3054 3058 3058 3056 3056 3059 3059 3056 3055 3060 3064 3065 3067 3068 3069 3067 3063 3061 3065 3069 3071 3072 3072 3072 3073 3074 3074 3075 3075 3076 3077 3077 3078 3079 3080 3081 3081 3082 3082 3083 3083 3083 3083 3084 3084 3085 3085 3086 3087 3087 3088 3089 3090 3091 3091 3092 3092 3092 3092 3091 3091 3091 3090 3090 3089 3089 3088 3087 3087 3086
3036 3037 3039 3042 3043 3045 3048 3048 3050 3049 3037 3028 3031 3039 3043 3047 3052 3057 3056 3050 3048 3053 3055 3054 3054 3057 3060 3062 3062 3063 3064 3062 3053 3052 3060 3067 3067 3067 3067 3066 3067 3067 3067 3068 3069 3069 3070 3071 3072 3073 3074 3075 3076 3076 3077 3078 3078 3078 3078 3078 3079 3079 3080 3081 3081 3082 3083 3085 3085 3086 3086 3087 3087 3087 3087 3086 3086 3086 3086 3085 3084 3084 3083 3083 3082 3081
3033 3035 3037 3039 3040 3041 3042 3042 3043 3039 3026 3021 3029 3037 3042 3046 3050 3055 3055 3044 3038 3045 3051 3052 3052 3054 3056 3057 3057 3057 3058 3053 3045 3048 3059 3063 3062 3061 3061 3061 3061 3061 3061 3061 3062 3063 3064 3065 3066 3067 3067 3068 3069 3070 3071 3072 3072 3072 3072 3073 3073 3073 3074 3075 3076 3077 3079 3080 3080 3081 3081 3081 3082 3081 3081 3081 3081 3081 3080 3080 3080 3079 3078 3078 3077 3076
3028 3030 3033 3035 3034 3035 3037 3038 3036 3029 3022 3023 3029 3033 3038 3043 3047 3052 3049 3036 3032 3042 3048 3048 3050 3052 3052 3052 3052 3052 3051 3047 3044 3049 3055 3057 3056 3056 3056 3056 3057 3057 3056 3057 3057 3058 3059 3059 3060 3061 3062 3063 3064 3064 3065 3065 3066 3066 3066 3067 3068 3068 3069 3070 3071 3072 3073 3074 3074 3075 3075 3076 3076 3076 3076 3076 3076 3076 3075 3075 3074 3074 3073 3072 3071 3070
3023 3026 3027 3028 3029 3031 3033 3033 3030 3024 3020 3023 3026 3028 3033 3040 3043 3041 3035 3030 3035 3043 3045 3045 3047 3048 3048 3049 3048 3047 3047 3047 3046 3047 3050 3051 3052 3052 3053 3053 3054 3053 3053 3054 3053 3054 3054 3055 3055 3056 3057 3057 3058 3058 3059 3059 3060 3060 3061 3061 3062 3063 3064 3065 3066 3067 3067 3068 3069 3070 3070 3071 3071 3071 3071 3071 3071 3070 3070 3070 3069 3068 3067 3067 3066 3065
3016 3019 3022 3023 3025 3027 3027 3029 3028 3021 3015 3019 3025 3026 3029 3032 3032 3028 3028 3032 3039 3040 3040 3041 3043 3044 3044 3045 3044 3044 3045 3045 3044 3044 3046 3047 3047 3048 3049 3050 3050 3050 3050 3050 3050 3051 3051 3051 3051 3052 3052 3053 3053 3053 3054 3054 3055 3055 3056 3056 3057 3058 3059 3060 3060 3061 3062 3062 3064 3065 3065 3065 3066 3066 3066 3066 3065 3065 3064 3064 3063 3063 3062 3061 3061 3060
3008 3013 3015 3016 3018 3021 3024 3027 3024 3013 3005 3012 3021 3022 3021 3021 3022 3025 3030 3034 3036 3036 3037 3038 3038 3040 3040 3040 3039 3040 3040 3041 3041 3041 3041 3042 3043 3044 3045 3045 3046 3047 3047 3047 3047 3047 3047 3047 3048 3048 3048 3049 3049 3049 3050 3050 3050 3051 3051 3052 3053 3054 3054 3055 3055 3055 3056 3057 3058 3059 3059 3060 3060 3060 3060 3060 3060 3059 3059 3058 3058 3057 3057 3056 3056 3055
3004 3005 3006 3006 3009 3012 3014 3014 3009 3003 3003 3009 3014 3014 3015 3018 3021 3026 3029 3030 3031 3033 3034 3034 3034 3036 3036 3035 3036 3036 3035 3037 3037 3037 3038 3038 3039 3039 3040 3041 3042 3043 3043 3043 3043 3043 3044 3044 3044 3044 3045 3045 3046 3046 3046 3046 3047 3047 3047 3048 3049 3049 3049 3049 3050 3050 3051 3051 3052 3053 3053 3054 3054 3055 3055 3054 3054 3054 3053 3053 3053 3052 3051 3051 3051 3050
2996 2998 3000 3001 3003 3004 3005 3004 3003 3004 3006 3008 3008 3010 3014 3018 3021 3023 3024 3026 3028 3029 3029 3030 3031 3032 3032 3032 3032 3031 3032 3033 3033 3033 3034 3034 3034 3035 3036 3036 3038 3038 3039 3039 3039 3040 3040 3040 3040 3041 3041 3041 3042 3042 3042 3043 3043 3043 3043 3044 3044 3044 3044 3044 3044 3045 3045 3046 3046 3047 3047 3048 3048 3049 3049 3049 3049 3048 3048 3048 3047 3047 3046 3046 3045 3045
2993 2996 2999 3000 3001 3002 3001 3001 3003 3004 3004 3004 3005 3008 3011 3013 3017 3019 3020 3022 3023 3024 3025 3026 3027 3028 3029 3029 3028 3028 3028 3028 3029 3029 3030 3030 3031 3031 3031 3032 3033 3034 3034 3035 3036 3036 3036 3036 3037 3037 3037 3038 3038 3038 3038 3039 3038 3039 3039 3039 3039 3039 3039 3039 3039 3039 3039 3040 3040 3041 3041 3042 3043 3043 3043 3043 3043 3043 3042 3042 3042 3041 3041 3040 3040 3040
2990 2993 2995 2995 2997 2996 2993 2993 2997 3000 3001 3003 3004 3005 3006 3009 3012 3015 3016 3018 3019 3020 3021 3021 3022 3023 3024 3024 3024 3024 3024 3024 3024 3025 3025 3026 3027 3027 3028 3029 3029 3030 3031 3031 3031 3032 3032 3033 3033 3033 3033 3033 3033 3033 3034 3033 3033 3034 3034 3033 3033 3033 3033 3033 3033 3033 3034 3034 3034 3035 3036 3036 3037 3037 3038 3038 3037 3037 3037 3036 3036 3036 3036 3035 3035 3034
2985 2988 2989 2990 2990 2989 2987 2990 2995 2997 2998 3000 3001 3001 3003 3005 3008 3010 3012 3013 3014 3015 3016 3016 3017 3018 3019 3019 3020 3020 3019 3020 3020 3020 3021 3022 3023 3024 3025 3025 3025 3026 3027 3027 3027 3027 3028 3028 3028 3028 3028 3028 3028 3028 3028 3028 3027 3028 3027 3027 3027 3027 3027 3027 3027 3028 3028 3029 3029 3030 3030 3031 3032 3032 3032 3032 3032 3031 3031 3031 3031 3031 3031 3031 3030 3029
2981 2982 2982 2983 2984 2983 2983 2986 2989 2991 2993 2996 2997 2998 3000 3002 3004 3006 3007 3008 3009 3010 3011 3012 3012 3013 3014 3014 3014 3014 3015 3015 3015 3016 3017 3018 3019 3020 3021 3021 3021 3022 3022 3022 3022 3022 3022 3023 3023 3023 3023 3023 3023 3023 3023 3022 3022 3022 3022 3022 3022 3022 3022 3022 3022 3022 3023 3023 3024 3025 3025 3026 3026 3026 3026 3026 3026 3026 3026 3026 3026 3026 3026 3025 3025 3024
2973 2973 2975 2978 2978 2976 2977 2980 2982 2986 2989 2991 2993 2995 2996 2998 3000 3001 3002 3004 3005 3006 3007 3007 3008 3008 3008 3008 3009 3009 3010 3010 3010 3011 3012 3013 3014 3015 3016 3016 3017 3017 3017 3017 3017 3017 3017 3017 3017 3017 3018 3018 3018 3018 3017 3017 3017 3017 3017 3017 3016 3016 3016 3016 3017 3017 3017 3018 3019 3020 3020 3021 3021 3021 3020 3020 3020 3021 3021 3021 3021 3021 3020 3020 3020 3019
2964 2966 2969 2971 2971 2971 2974 2978 2980 2982 2984 2986 2989 2991 2992 2993 2995 2996 2998 2999 3000 3001 3002 3003 3003 3003 3003 3003 3004 3004 3004 3005 3005 3006 3007 3008 3009 3009 3010 3011 3012 3012 3012 3012 3012 3012 3012 3012 3011 3012 3012 3012 3012 3012 3012 3012 3012 3012 3011 3011 3011 3011 3011 3011 3011 3012 3012 3013 3014 3015 3015 3015 3015 3015 3015 3015 3016 3016 3016 3016 3016 3016 3015 3015 3015 3015